Simultaneous Nadir Overpasses (SNOs) Predictions

Prediction of SNOs between METOP-A and TERRA Satellite Orbit:

Table of predicted SNOs for the next 14.0 days since TLE Epoch: 3/22/2014
Index Date (METOP-A) Time (METOP-A) Lat,Lon (METOP-A) SZA (METOP-A ) Date (TERRA) Time (TERRA) Lat,Lon (TERRA) SZA (TERRA ) Distance(km) Time Diff (sec)
1 03/23/2014 21:36:56 81.35, -95.91 82.80 03/23/2014 21:36:58 81.36, -95.86 82.80 0.77 2
2 03/23/2014 22:27:36 -81.36, 71.82 97.18 03/23/2014 22:26:25 -81.35, 71.70 97.22 1.99 71
3 03/26/2014 17:11:14 81.35, -29.55 81.71 03/26/2014 17:11:16 81.35, -29.52 81.72 0.42 2
4 03/26/2014 18:01:54 -81.36, 138.20 98.26 03/26/2014 18:00:43 -81.35, 138.07 98.31 2.42 71
5 03/29/2014 11:55:17 -81.14,-140.01 100.49 03/29/2014 11:56:31 -80.81,-139.05 100.62 40.32 74
6 03/29/2014 12:45:32 81.36, 37.13 80.67 03/29/2014 12:45:34 81.36, 36.99 80.66 2.26 2
7 03/29/2014 13:36:13 -81.36,-155.50 99.34 03/29/2014 13:35:01 -81.35,-155.40 99.36 1.73 72
8 04/01/2014 07:29:19 -81.31, -67.27 100.79 04/01/2014 07:30:33 -81.20, -67.03 100.81 12.63 74
9 04/01/2014 08:19:51 81.35, 103.32 79.59 04/01/2014 08:19:52 81.35, 103.30 79.58 0.58 1
10 04/01/2014 09:10:31 -81.36, -88.89 100.38 04/01/2014 09:09:19 -81.35, -89.07 100.44 3.11 72
11 04/04/2014 03:03:29 -81.35, 2.00 101.51 04/04/2014 03:04:42 -81.35, 2.11 101.46 1.90 73
12 04/04/2014 03:54:08 81.35, 169.83 78.55 04/04/2014 03:54:08 81.35, 169.78 78.54 0.85 0
